When you browse on this site, cookies collect data to enhance your experience and personalize the content and advertising you see.
Visit our Privacy Policy to learn more. By continuing to use the site, you agree to this use of cookies and data.
  • In Portugal
  • List of Countries
  • For 7 days
  • Water Temperature
  • Satellite Maps
  • Weather Map
  • Weather Widgets
  • user-avatar
    Login

    Hourly Weather Plovdiv

    Today, 16 January, Wednesday

    Time Temperature Precipitation Wind Pressure Humidity
    00:00 -5°C° 0 mm 4 mps 738 mmHg 67%
    01:00 -5°C° 0 mm 4 mps 738 mmHg 65%
    02:00 -5°C° 0 mm 3 mps 738 mmHg 65%
    03:00 -5°C° 0 mm 3 mps 738 mmHg 66%
    04:00 -5°C° 0 mm 3 mps 738 mmHg 68%
    05:00 -4°C° 0 mm 3 mps 738 mmHg 70%
    06:00 -4°C° 0 mm 3 mps 738 mmHg 69%
    07:00 -4°C° 0 mm 3 mps 738 mmHg 69%
    08:00 -2°C° 0 mm 3 mps 738 mmHg 67%
    09:00 +1°C° 0 mm 3 mps 738 mmHg 61%
    10:00 +3°C° 0 mm 3 mps 738 mmHg 55%
    11:00 +5°C° 0 mm 4 mps 738 mmHg 49%
    12:00 +6°C° 0 mm 4 mps 738 mmHg 49%
    13:00 +7°C° 0 mm 4 mps 738 mmHg 49%
    14:00 +8°C° 0 mm 5 mps 737 mmHg 50%
    15:00 +7°C° 0 mm 4 mps 737 mmHg 54%
    16:00 +5°C° 0 mm 3 mps 737 mmHg 58%
    17:00 +5°C° 0 mm 2 mps 737 mmHg 63%
    18:00 +4°C° 0 mm 3 mps 738 mmHg 64%
    19:00 +3°C° 0 mm 3 mps 738 mmHg 65%
    20:00 +2°C° 0 mm 3 mps 739 mmHg 66%
    21:00 +2°C° 0 mm 3 mps 739 mmHg 66%
    22:00 +2°C° 0 mm 3 mps 739 mmHg 66%
    23:00 +2°C° 0 mm 3 mps 740 mmHg 66%

    Tomorrow, 17 January, Thursday

    Time Temperature Precipitation Wind Pressure Humidity
    00:00 +3°C° 0 mm 2 mps 740 mmHg 66%
    01:00 +3°C° 0 mm 2 mps 740 mmHg 66%
    02:00 +3°C° 0 mm 2 mps 740 mmHg 66%
    03:00 +3°C° 0 mm 2 mps 740 mmHg 66%
    04:00 +3°C° 0 mm 2 mps 740 mmHg 65%
    05:00 +3°C° 0 mm 2 mps 740 mmHg 65%
    06:00 +3°C° 0 mm 2 mps 740 mmHg 64%
    07:00 +3°C° 0 mm 2 mps 740 mmHg 64%
    08:00 +3°C° 0 mm 2 mps 740 mmHg 63%
    09:00 +6°C° 0 mm 1 mps 740 mmHg 60%
    10:00 +8°C° 0 mm 1 mps 740 mmHg 57%
    11:00 +10°C° 0 mm 1 mps 740 mmHg 55%
    12:00 +11°C° 0 mm 1 mps 740 mmHg 54%
    13:00 +12°C° 0 mm 1 mps 740 mmHg 54%
    14:00 +12°C° 0 mm 1 mps 740 mmHg 53%
    15:00 +11°C° 0 mm 1 mps 739 mmHg 59%
    16:00 +10°C° 0 mm 1 mps 739 mmHg 66%
    17:00 +8°C° 0 mm 1 mps 739 mmHg 72%
    18:00 +7°C° 0 mm 1 mps 739 mmHg 71%
    19:00 +6°C° 0 mm 1 mps 739 mmHg 71%
    20:00 +6°C° 0 mm 1 mps 739 mmHg 70%
    21:00 +5°C° 0 mm 1 mps 739 mmHg 68%
    22:00 +5°C° 0 mm 1 mps 739 mmHg 67%
    23:00 +4°C° 0 mm 2 mps 739 mmHg 65%

    Day after tomorrow, 18 January, Friday

    Time Temperature Precipitation Wind Pressure Humidity
    00:00 +4°C° 0 mm 2 mps 739 mmHg 64%
    01:00 +3°C° 0 mm 2 mps 739 mmHg 63%
    02:00 +3°C° 0 mm 2 mps 739 mmHg 62%
    03:00 +3°C° 0 mm 2 mps 739 mmHg 62%
    04:00 +3°C° 0 mm 2 mps 739 mmHg 61%
    05:00 +3°C° 0 mm 2 mps 739 mmHg 60%
    06:00 +3°C° 0 mm 2 mps 739 mmHg 60%
    07:00 +3°C° 0 mm 2 mps 739 mmHg 59%
    08:00 +3°C° 0 mm 2 mps 739 mmHg 59%
    09:00 +6°C° 0 mm 1 mps 739 mmHg 56%
    10:00 +8°C° 0 mm 1 mps 739 mmHg 53%
    11:00 +11°C° 0 mm 1 mps 739 mmHg 51%
    12:00 +10°C° 0 mm 0 mps 739 mmHg 50%
    13:00 +11°C° 0 mm 0 mps 739 mmHg 49%
    14:00 +12°C° 0 mm 0 mps 738 mmHg 49%
    15:00 +10°C° 0 mm 0 mps 739 mmHg 53%
    16:00 +9°C° 0 mm 0 mps 739 mmHg 58%
    17:00 +8°C° 0 mm 0 mps 739 mmHg 63%
    18:00 +8°C° 0 mm 1 mps 740 mmHg 65%
    19:00 +7°C° 0 mm 1 mps 740 mmHg 67%
    20:00 +7°C° 0 mm 1 mps 741 mmHg 69%
    21:00 +6°C° 0 mm 1 mps 741 mmHg 70%
    22:00 +6°C° 0 mm 1 mps 741 mmHg 70%
    23:00 +6°C° 0 mm 1 mps 741 mmHg 71%

    19 January, Saturday

    Time Temperature Precipitation Wind Pressure Humidity
    00:00 +6°C° 0 mm 1 mps 741 mmHg 72%
    01:00 +5°C° 0 mm 1 mps 742 mmHg 72%
    02:00 +5°C° 0 mm 1 mps 742 mmHg 72%
    03:00 +5°C° 0 mm 1 mps 742 mmHg 73%
    04:00 +5°C° 0 mm 1 mps 742 mmHg 74%
    05:00 +5°C° 0 mm 1 mps 742 mmHg 75%
    06:00 +4°C° 0 mm 1 mps 742 mmHg 77%
    07:00 +4°C° 0 mm 1 mps 742 mmHg 78%
    08:00 +3°C° 0 mm 1 mps 742 mmHg 79%
    09:00 +5°C° 0 mm 1 mps 742 mmHg 76%
    10:00 +5°C° 0 mm 2 mps 742 mmHg 72%
    11:00 +7°C° 0 mm 2 mps 742 mmHg 69%
    12:00 +7°C° 0 mm 2 mps 742 mmHg 69%
    13:00 +8°C° 0 mm 2 mps 742 mmHg 69%
    14:00 +8°C° 0 mm 2 mps 741 mmHg 69%
    15:00 +7°C° 0 mm 2 mps 741 mmHg 73%
    16:00 +6°C° 0 mm 2 mps 741 mmHg 78%
    17:00 +6°C° 0 mm 1 mps 741 mmHg 83%
    18:00 +6°C° 0 mm 1 mps 741 mmHg 84%
    19:00 +5°C° 0 mm 1 mps 741 mmHg 86%
    20:00 +4°C° 0 mm 1 mps 741 mmHg 87%
    21:00 +4°C° 0 mm 1 mps 741 mmHg 88%
    22:00 +4°C° 0 mm 1 mps 741 mmHg 88%
    23:00 +4°C° 0 mm 1 mps 741 mmHg 88%

    20 January, Sunday

    Time Temperature Precipitation Wind Pressure Humidity
    00:00 +4°C° 0 mm 1 mps 740 mmHg 88%
    01:00 +4°C° 0 mm 1 mps 740 mmHg 89%
    02:00 +5°C° 0 mm 1 mps 740 mmHg 90%
    03:00 +5°C° 0 mm 1 mps 739 mmHg 90%
    04:00 +5°C° 0 mm 1 mps 739 mmHg 90%
    05:00 +5°C° 0 mm 1 mps 739 mmHg 90%
    06:00 +5°C° 0 mm 1 mps 739 mmHg 90%
    07:00 +5°C° 0 mm 1 mps 739 mmHg 89%
    08:00 +5°C° 0 mm 1 mps 739 mmHg 89%
    09:00 +6°C° 0 mm 1 mps 739 mmHg 84%
    10:00 +8°C° 0 mm 1 mps 739 mmHg 79%
    11:00 +9°C° 0 mm 1 mps 739 mmHg 74%
    12:00 +10°C° 0 mm 1 mps 738 mmHg 72%
    13:00 +10°C° 0 mm 1 mps 738 mmHg 70%
    14:00 +11°C° 0 mm 1 mps 737 mmHg 69%
    15:00 +10°C° 0 mm 1 mps 737 mmHg 72%
    16:00 +9°C° 0 mm 1 mps 737 mmHg 75%
    17:00 +9°C° 0 mm 1 mps 737 mmHg 79%
    18:00 +8°C° 0 mm 1 mps 737 mmHg 80%
    19:00 +7°C° 0 mm 1 mps 737 mmHg 81%
    20:00 +7°C° 0 mm 1 mps 737 mmHg 82%
    21:00 +7°C° 0 mm 1 mps 737 mmHg 81%
    22:00 +6°C° 0 mm 1 mps 737 mmHg 81%
    23:00 +6°C° 0 mm 1 mps 737 mmHg 81%

    21 January, Monday

    Time Temperature Precipitation Wind Pressure Humidity
    00:00 +5°C° 0 mm 2 mps 737 mmHg 81%
    01:00 +5°C° 0 mm 2 mps 737 mmHg 81%
    02:00 +5°C° 0 mm 2 mps 737 mmHg 81%
    03:00 +4°C° 0 mm 2 mps 737 mmHg 81%
    04:00 +4°C° 0 mm 2 mps 737 mmHg 81%
    05:00 +4°C° 0 mm 2 mps 737 mmHg 81%
    06:00 +4°C° 0 mm 2 mps 737 mmHg 80%
    07:00 +4°C° 0 mm 2 mps 737 mmHg 79%
    08:00 +4°C° 0 mm 2 mps 738 mmHg 78%
    09:00 +7°C° 0 mm 1 mps 738 mmHg 73%
    10:00 +9°C° 0 mm 1 mps 738 mmHg 67%
    11:00 +10°C° 0 mm 1 mps 739 mmHg 62%
    12:00 +11°C° 0 mm 1 mps 738 mmHg 61%
    13:00 +11°C° 0 mm 1 mps 738 mmHg 61%
    14:00 +12°C° 0 mm 1 mps 738 mmHg 60%
    15:00 +11°C° 0 mm 1 mps 738 mmHg 64%
    16:00 +10°C° 0 mm 1 mps 738 mmHg 68%
    17:00 +8°C° 0 mm 0 mps 739 mmHg 73%
    18:00 +7°C° 0 mm 0 mps 739 mmHg 75%
    19:00 +7°C° 0 mm 0 mps 739 mmHg 78%
    20:00 +6°C° 0 mm 0 mps 740 mmHg 80%
    21:00 +6°C° 0 mm 0 mps 740 mmHg 83%
    22:00 +5°C° 0 mm 0 mps 740 mmHg 85%
    23:00 +5°C° 0 mm 0 mps 740 mmHg 87%
    Show more